Powrót do katalogu

SCOUT A DEB

AktywnyPO
NORAD 3214·DEBRIS·🇺🇸 United States

Wystrzelony Mar 2, 1968 z Vandenberg Space Force Base

Loading…

Następne Przeloty (najbliższe 24 godziny)

TLE

ŚwieżeSource: Space-Track

Epoka: Sep 13, 2026, 00:35 UTC

1 03214U 68012D   26256.02469916  .00000109  00000-0  19541-3 0  9998
2 03214  89.8061 101.9333 0186487  13.3844 139.8410 13.29300290596208

Śledź SCOUT A DEB w czasie rzeczywistym z AllMySat

Download on the App Store